Regional Weather Roundup
Issued by NWS

Home | Current Version | Previous Version | Text Only | Print | Product List | Glossary Off
Versions: 1 2 3 4 5 6 7 8 9 10 11 12 13 14 15 16 17 18 19 20 21 22 23 24 25 26 27 28 29 30 31 32 33 34 35 36 37 38 39 40 41 42 43 44 45 46 47 48 49 50

649
ASUS44 KJAN 181210
RWRMS

MISSISSIPPI HOURLY WEATHER ROUNDUP
NATIONAL WEATHER SERVICE JACKSON MS
700 AM CDT THU SEP 18 2014

NOTE: "FAIR: INDICATES FEW OR NO CLOUDS BELOW 12,000 FEET WITH NO
SIGNIFICANT WEATHER AND/OR OBSTRUCTIONS TO VISIBILITY.

MSZ001>002-007>008-010>013-018>021-025>028-034>036-181300-
NORTHWEST MISSISSIPPI

CITY           SKY/WX    TMP DP  RH WIND       PRES   REMARKS
CLARKSDALE       N/A     68  68 100 CALM      29.93R
CLEVELAND      FAIR      71  69  93 SE3       29.91R
GREENWOOD      CLOUDY    70  66  87 S5        29.92R
6HR MIN TEMP:  69; 6HR MAX TEMP:  74;

GREENVILLE     CLOUDY    72  68  87 SE3       29.91R
6HR MIN TEMP:  71; 6HR MAX TEMP:  75;

GRENADA        FAIR      68  64  88 E5        29.93R
OLIVE BRANCH   CLOUDY    64  64 100 CALM      29.94R
OXFORD         FAIR      66  64  94 E3        29.96R
TUNICA         PTSUNNY   64  64 100 NE3       29.94R FOG
$$

MSZ003>006-009-014>017-022>024-029>033-037>039-181300-
NORTHEAST MISSISSIPPI

CITY           SKY/WX    TMP DP  RH WIND       PRES   REMARKS
COLUMBUS AFB   PTCLDY    64  62  92 SE2       29.95R
6HR MIN TEMP:  63; 6HR MAX TEMP:  66;

CORINTH        FAIR      63  59  88 S3        29.96R
GOLDN TRIANGLE CLEAR     64  61  88 E5        29.95R
STARKVILLE     FAIR      63  63 100 CALM      29.94S
TUPELO         CLOUDY    67  63  87 CALM      29.95R
6HR MIN TEMP:  66; 6HR MAX TEMP:  69;

$$

MSZ040-058-181300-
CENTRAL MISSISSIPPI

CITY           SKY/WX    TMP DP  RH WIND       PRES   REMARKS
JACKSON INTL   MOCLDY    69  67  93 CALM      29.93R
6HR MIN TEMP:  69; 6HR MAX TEMP:  75;

JACKSON HAWKNS PTCLDY    73  67  81 CALM      29.93S
6HR MIN TEMP:  73; 6HR MAX TEMP:  78;

MERIDIAN KEY   CLEAR     66  64  93 CALM      29.94R
6HR MIN TEMP:  66; 6HR MAX TEMP:  72; 6HR PCP:  0.02;

MERIDIAN NAS   PTCLDY    65  63  93 CALM      29.94R
6HR MIN TEMP:  65; 6HR MAX TEMP:  71;

RAYMOND        FAIR      68  64  88 CALM      29.93R HAZE
VICKSBURG      PTCLDY    72  70  93 CALM      29.93R
6HR MIN TEMP:  69; 6HR MAX TEMP:  73;

$$

MSZ059>079-181300-
SOUTH MISSISSIPPI

CITY           SKY/WX    TMP DP  RH WIND       PRES   REMARKS
BROOKHAVEN     FAIR      70  70 100 CALM      29.95S FOG
COLUMBIA       FAIR      70  70 100 CALM      29.92R
HATTIESBURG    PTCLDY    71  69  93 CALM      29.93S
6HR MIN TEMP:  71; 6HR MAX TEMP:  75;

MCCOMB         CLOUDY    73  71  93 CALM      29.94R
6HR MIN TEMP:  71; 6HR MAX TEMP:  73;

NATCHEZ        CLOUDY    72  70  94 CALM      29.93S
6HR MIN TEMP:  72; 6HR MAX TEMP:  73;

PINE BELT      PTCLDY    68  64  88 CALM      29.95R
$$

MSZ080>082-181300-
COASTAL MISSISSIPPI

CITY           SKY/WX    TMP DP  RH WIND       PRES   REMARKS
BAY ST LOUIS   PTCLDY    72  70  94 CALM      29.92
BILOXI         PTCLDY    76  73  90 N3        29.91R
6HR MIN TEMP:  75; 6HR MAX TEMP:  78;

PASCAGOULA     PTCLDY    71  70  96 CALM      29.92R FOG
6HR MIN TEMP:  70; 6HR MAX TEMP:  73;

GULFPORT       PTCLDY    73  71  93 CALM      29.91R FOG
6HR MIN TEMP:  73; 6HR MAX TEMP:  76;

$$



USA.gov is the U.S. government's official web portal to all federal, state and local government web resources and services.